TimePST,TemperatureF,Dew PointF,Humidity,Sea Level PressureIn,VisibilityMPH,Wind Direction,Wind SpeedMPH,Gust SpeedMPH,PrecipitationIn,Events,Conditions,WindDirDegrees,DateUTC
12:00 AM,41.4,38.1,88,30.01,-9999.0,West,15.0,-,N/A,,Unknown,280,2013-01-27 08:00:00
1:00 AM,42.1,37.9,85,30.00,-9999.0,West,12.7,-,N/A,,Unknown,280,2013-01-27 09:00:00
2:00 AM,41.5,37.8,86,29.99,-9999.0,West,10.4,-,N/A,,Unknown,270,2013-01-27 10:00:00
3:00 AM,41.7,37.8,86,29.99,-9999.0,West,10.4,-,N/A,,Unknown,270,2013-01-27 11:00:00
4:00 AM,42,37,75,29.98,,West,15.0,,,,,280,2013-01-27 12:00:00
5:00 AM,41.4,36.9,84,29.98,-9999.0,WNW,6.9,-,0.02,,Unknown,300,2013-01-27 13:00:00
6:00 AM,40.1,37.0,89,29.97,-9999.0,WNW,13.8,-,0.03,,Unknown,290,2013-01-27 14:00:00
7:00 AM,40.5,38.3,92,29.96,-9999.0,West,6.9,-,0.03,,Unknown,280,2013-01-27 15:00:00
8:00 AM,40.6,38.7,93,29.95,-9999.0,WNW,6.9,-,0.03,,Unknown,290,2013-01-27 16:00:00
9:00 AM,40.1,37.2,89,29.96,-9999.0,West,15.0,-,0.08,,Unknown,270,2013-01-27 17:00:00
10:00 AM,40,37,87,29.96,,WNW,17.3,,,,,290,2013-01-27 18:00:00
10:00 AM,40.3,37.4,89,29.96,-9999.0,WNW,17.3,-,0.04,,Unknown,290,2013-01-27 18:00:00
11:00 AM,41.2,37.9,88,29.97,-9999.0,NW,13.8,-,0.02,,Unknown,320,2013-01-27 19:00:00
12:00 PM,41.9,37.2,83,29.98,-9999.0,NW,19.6,-,0.02,,Unknown,310,2013-01-27 20:00:00
1:00 PM,42.8,38.7,85,29.98,-9999.0,NW,17.3,-,N/A,,Unknown,310,2013-01-27 21:00:00
2:00 PM,43.2,38.5,84,29.97,-9999.0,NW,23.0,29.9,N/A,,Unknown,320,2013-01-27 22:00:00
3:00 PM,43.2,38.5,84,29.98,-9999.0,WNW,23.0,-,N/A,,Unknown,300,2013-01-27 23:00:00
4:00 PM,43,36,70,29.99,,WNW,26.5,,,,,300,2013-01-28 00:00:00
4:00 PM,43.2,36.5,77,29.99,-9999.0,WNW,26.5,-,N/A,,Unknown,300,2013-01-28 00:00:00
5:00 PM,42.8,34.9,74,30.00,-9999.0,NW,27.6,-,N/A,,Unknown,310,2013-01-28 01:00:00
6:00 PM,43.0,33.8,70,30.02,-9999.0,NW,29.9,-,N/A,,Unknown,310,2013-01-28 02:00:00
7:00 PM,42.3,35.8,78,30.03,-9999.0,NW,25.3,-,N/A,,Unknown,310,2013-01-28 03:00:00
8:00 PM,43.2,33.6,69,30.02,-9999.0,NW,27.6,-,N/A,,Unknown,310,2013-01-28 04:00:00
9:00 PM,42.8,34.7,73,30.04,-9999.0,NW,26.5,-,N/A,,Unknown,310,2013-01-28 05:00:00
10:00 PM,42,36,71,30.05,,NW,21.9,,,,,310,2013-01-28 06:00:00
10:00 PM,41.9,35.8,79,30.05,-9999.0,NW,21.9,-,N/A,,Unknown,310,2013-01-28 06:00:00
11:00 PM,42.3,35.1,76,30.04,-9999.0,WNW,28.8,-,N/A,,Unknown,290,2013-01-28 07:00:00